Weather History for KBCE - November, 2013

Change the Weather History Date:

Monday, November 4, 2013

  Actual Average Record
Temperature  
Mean Temperature 28 °F -  
Max Temperature 35 °F 50 °F 66 °F (2010)
Min Temperature 19 °F 20 °F 1 °F (1991)
Degree Days  
Heating Degree Days 37    
Moisture  
Dew Point 23 °F    
Average Humidity 84    
Maximum Humidity 93    
Minimum Humidity 52    
Precipitation  
Precipitation 0.02 in - - ()
Sea Level Pressure  
Sea Level Pressure 29.90 in    
Wind  
Wind Speed 6 mph (North)    
Max Wind Speed 12 mph    
Max Gust Speed -    
Visibility 7 miles    
Events Fog , Snow    
Averages and records for this station are not official NWS values.
T = Trace of Precipitation, MM = Missing Value Source: NWS Daily Summary

Daily Weather History Graph

Daily Weather History Graph

Search for Another Location

Airport or City:

Trip Planner

Search our weather history database for the weather conditions in past years. The results will help you decide how hot, cold, wet, or windy it might be!

Date:

Astronomy

Nov. 04, 2013 Rise Set
Actual Time 6:57 AM MST 5:26 PM MST
Civil Twilight 6:29 AM MST 5:53 PM MST
Nautical Twilight 5:58 AM MST 6:24 PM MST
Astronomical Twilight 5:28 AM MST 6:55 PM MST
Moon 8:10 AM MST (11/4) 6:35 PM MST (11/4)
Length of Visible Light 11h 23m
Length of Day
10h 29m
New Moon, 2% of the Moon is Illuminated
Nov 4
New Moon
Nov 9
First Quarter
Nov 17
Full
Nov 25
Last Quarter
Dec 2
New

Hourly Weather History & Observations

Time (MST) Temp. Windchill Dew Point Humidity Pressure Visibility Wind Dir Wind Speed Gust Speed Precip Events Conditions
12:53 AM 23.0 °F 13.1 °F 19.0 °F 85% 29.81 in 10.0 mi NNE 9.2 mph - N/A   Clear
1:53 AM 21.9 °F 15.7 °F 17.1 °F 82% 29.82 in 10.0 mi North 4.6 mph - N/A   Clear
2:53 AM 21.0 °F 16.2 °F 18.0 °F 88% 29.82 in 10.0 mi WNW 3.5 mph - N/A   Clear
3:53 AM 21.9 °F 15.7 °F 18.0 °F 85% 29.81 in 10.0 mi NNW 4.6 mph - N/A   Clear
4:53 AM 21.9 °F 15.7 °F 17.1 °F 82% 29.84 in 10.0 mi NNE 4.6 mph - N/A   Clear
5:53 AM 21.9 °F 17.2 °F 17.1 °F 82% 29.87 in 10.0 mi NNE 3.5 mph - N/A   Scattered Clouds
6:53 AM 23.0 °F 15.8 °F 17.1 °F 78% 29.88 in 10.0 mi NNE 5.8 mph - N/A   Mostly Cloudy
7:53 AM 24.1 °F - 17.1 °F 75% 29.91 in 10.0 mi Calm Calm - N/A   Overcast
8:53 AM 26.1 °F - 17.1 °F 69% 29.91 in 10.0 mi Calm Calm - N/A   Overcast
9:53 AM 28.0 °F 24.2 °F 18.0 °F 66% 29.90 in 10.0 mi ENE 3.5 mph - N/A   Mostly Cloudy
10:53 AM 33.1 °F 25.5 °F 18.0 °F 54% 29.87 in 10.0 mi ESE 9.2 mph - N/A   Scattered Clouds
11:53 AM 35.1 °F 27.9 °F 19.0 °F 52% 29.84 in 10.0 mi SE 9.2 mph - N/A   Scattered Clouds
12:53 PM 35.1 °F 27.4 °F 19.0 °F 52% 29.83 in 10.0 mi SE 10.4 mph - N/A   Mostly Cloudy
1:27 PM 32.0 °F 23.0 °F 24.8 °F 75% 29.91 in 1.8 mi SSE 11.5 mph - 0.00 in Snow Light Snow
1:40 PM 30.2 °F 24.3 °F 26.6 °F 86% 29.91 in 0.5 mi SSE 5.8 mph - 0.00 in Fog , Snow Snow
1:53 PM 30.9 °F 25.2 °F 27.0 °F 85% 29.85 in 2.0 mi SSE 5.8 mph - 0.00 in Snow Light Snow
2:15 PM 30.2 °F - 28.4 °F 93% 29.90 in 3.0 mi Calm Calm - 0.00 in Snow Light Snow
2:28 PM 30.2 °F - 28.4 °F 93% 29.90 in 3.0 mi Calm Calm - 0.00 in Snow Light Snow
2:32 PM 30.2 °F - 28.4 °F 93% 29.90 in 2.5 mi Calm Calm - 0.00 in Snow Light Snow
2:38 PM 30.2 °F - 28.4 °F 93% 29.90 in 1.8 mi Calm Calm - 0.00 in Snow Light Snow
2:53 PM 30.9 °F 26.2 °F 28.0 °F 89% 29.86 in 1.2 mi WNW 4.6 mph - 0.01 in Snow Light Snow
3:13 PM 30.2 °F 24.3 °F 28.4 °F 93% 29.91 in 1.5 mi NW 5.8 mph - 0.00 in Snow Light Snow
3:53 PM 30.9 °F 26.2 °F 28.0 °F 89% 29.87 in 1.0 mi NW 4.6 mph - 0.01 in Snow Light Snow
4:13 PM 30.2 °F 26.7 °F 28.4 °F 93% 29.92 in 2.0 mi WNW 3.5 mph - 0.00 in Snow Light Snow
4:21 PM 30.2 °F 24.3 °F 28.4 °F 93% 29.93 in 3.0 mi West 5.8 mph - 0.00 in Snow Light Snow
4:53 PM 28.9 °F 19.2 °F 26.1 °F 89% 29.90 in 4.0 mi WNW 11.5 mph - 0.00 in Snow Light Snow
5:37 PM 28.4 °F 21.2 °F 26.6 °F 93% 29.94 in 7.0 mi NNE 6.9 mph - 0.00 in Snow Light Snow
5:53 PM 27.0 °F 18.7 °F 25.0 °F 92% 29.92 in 9.0 mi North 8.1 mph - 0.00 in   Overcast
6:41 PM 26.6 °F 17.5 °F 24.8 °F 93% 29.96 in 10.0 mi North 9.2 mph - N/A   Overcast
6:53 PM 27.0 °F 18.0 °F 24.1 °F 89% 29.94 in 10.0 mi NNW 9.2 mph - N/A   Overcast
7:13 PM 26.6 °F 18.2 °F 24.8 °F 93% 29.98 in 10.0 mi North 8.1 mph - N/A   Overcast
7:25 PM 26.6 °F 19.1 °F 23.0 °F 86% 29.98 in 10.0 mi North 6.9 mph - N/A   Overcast
7:53 PM 25.0 °F 16.3 °F 23.0 °F 92% 29.96 in 10.0 mi North 8.1 mph - N/A   Overcast
8:26 PM 24.8 °F 15.3 °F 21.2 °F 86% 29.99 in 10.0 mi North 9.2 mph - N/A   Overcast
8:53 PM 25.0 °F 14.8 °F 21.9 °F 88% 29.96 in 10.0 mi North 10.4 mph - N/A   Overcast
9:53 PM 21.9 °F 12.5 °F 19.9 °F 92% 29.98 in 10.0 mi NW 8.1 mph - N/A   Scattered Clouds
10:53 PM 21.0 °F 10.6 °F 19.0 °F 92% 29.97 in 10.0 mi NW 9.2 mph - N/A   Partly Cloudy
11:53 PM 19.9 °F 9.3 °F 17.1 °F 89% 29.97 in 10.0 mi NW 9.2 mph - N/A   Clear